Date,TemperatureHighF,TemperatureAvgF,TemperatureLowF,DewpointHighF,DewpointAvgF,DewpointLowF,HumidityHigh,HumidityAvg,HumidityLow,PressureMaxIn,PressureMinIn,WindSpeedMaxMPH,WindSpeedAvgMPH,GustSpeedMaxMPH,PrecipitationSumIn
2013-5-1,74,62,56,55,54,53,97,77,52,0.00,40.00,14,6,19,0.00
2013-5-2,95,66,54,54,47,-8,99,67,2,0.00,40.00,15,6,33,0.00
2013-5-3,92,79,63,52,23,2,66,21,4,0.00,40.00,17,9,20,0.00
2013-5-4,71,62,51,54,51,28,93,67,27,0.00,40.00,13,8,22,0.00
2013-5-5,64,59,56,54,51,48,89,77,57,0.00,40.00,13,7,24,0.00
2013-5-6,63,58,54,59,55,52,100,90,70,0.00,40.00,10,5,21,0.33
2013-5-7,70,59,54,55,51,47,96,76,45,0.00,40.00,17,7,26,0.01
2013-5-8,69,60,54,54,51,44,93,73,53,0.00,40.00,14,7,22,0.01
2013-5-9,70,60,51,54,51,46,92,72,53,0.00,40.00,15,6,22,0.00
2013-5-10,77,65,55,58,54,-100,96,74,51,0.00,40.00,13,7,18,0.00
2013-5-11,88,67,55,60,58,55,100,77,39,0.00,40.00,14,5,20,0.00
2013-5-12,96,76,56,64,54,43,100,59,17,0.00,40.00,14,6,21,0.00
2013-5-13,99,89,73,51,44,35,31,22,14,0.00,40.00,16,10,26,0.00
2013-5-14,82,68,57,57,53,41,95,61,31,0.00,40.00,14,7,20,0.00
2013-5-15,72,63,55,56,54,53,93,75,54,0.00,40.00,15,7,21,0.00
2013-5-16,71,58,56,55,34,-100,90,73,55,0.00,40.00,14,7,20,0.00
2013-5-17,70,63,58,56,48,-100,90,72,57,0.00,40.00,14,7,23,0.00
2013-5-18,72,63,56,57,55,53,94,76,54,0.00,40.00,13,6,20,0.00
2013-5-19,73,63,52,56,55,52,100,77,53,0.00,40.00,14,6,20,0.00
2013-5-20,80,64,54,58,56,53,100,77,45,0.00,40.00,16,6,20,0.00
2013-5-21,80,65,56,59,58,56,100,80,47,0.00,40.00,15,6,19,0.00
2013-5-22,72,63,57,57,54,51,90,73,55,0.00,40.00,15,7,22,0.00
2013-5-23,70,62,55,54,52,48,92,71,52,0.00,40.00,13,8,22,0.00
2013-5-24,70,62,52,53,50,48,87,68,52,0.00,40.00,14,8,23,0.00
2013-5-25,72,60,48,54,50,44,92,72,49,0.00,40.00,14,8,21,0.00
2013-5-26,71,61,54,54,52,50,90,73,54,0.00,40.00,14,7,23,0.00
2013-5-27,74,62,52,57,53,50,95,75,48,0.00,40.00,16,6,22,0.00
2013-5-28,74,64,57,57,55,53,91,73,53,0.00,40.00,15,7,24,0.00
2013-5-29,77,65,55,59,57,54,98,76,51,0.00,40.00,14,7,19,0.00
2013-5-30,78,65,55,59,57,55,99,79,51,0.00,40.00,15,7,21,0.00
2013-5-31,78,66,59,59,58,56,95,78,52,0.00,40.00,14,6,19,0.00